Regional Weather Roundup
Issued by NWS

Home | Current Version | Previous Version | Graphics & Text | Print | Product List | Glossary On
Versions: 1 2 3 4 5 6 7 8 9 10 11 12 13 14 15 16 17 18 19 20 21 22 23 24 25 26 27 28 29 30 31 32 33 34 35 36 37 38 39 40 41 42 43 44 45 46 47 48 49 50
000
ASUS45 KSLC 281410
RWRUT

UTAH REGIONAL WEATHER ROUNDUP
NATIONAL WEATHER SERVICE SALT LAKE CITY UT
700 AM MST FRI NOV 28 2014

UTZ001>011-023>025-281500-

NORTHERN UTAH

CITY           SKY/WX    TMP DP  RH WIND       PRES   REMARKS
BRIGHAM CITY   CLOUDY    36  28  75 CALM      30.02F
HILL AFB       CLOUDY    44  22  40 E8        30.03S
LOGAN          CLEAR     31  26  82 CALM      30.01F
OGDEN          CLOUDY    42  25  50 S8        30.02S
PROVO AIRPORT  CLOUDY    32  27  80 CALM      30.09S
SALT LAKE CITY CLOUDY    45  23  42 SE8       30.01F
VERNAL         PTCLDY    27  19  72 W5        30.15S WCI  22
WENDOVER       MOCLDY    34  23  64 CALM      30.02S
HEBER CITY     CLOUDY    28  25  86 CALM      30.09F
WEST JORDAN    CLEAR     48  27  43 S16       30.04S

$$

UTZ012>022-026-027-281500-

SOUTHERN/CENTRAL UTAH

CITY           SKY/WX    TMP DP  RH WIND       PRES   REMARKS
BLANDING       MOCLDY    29  21  73 NW6       30.32S WCI  23
BRYCE CANYON   PTCLDY    13   8  81 W6        30.27S WCI   4
CEDAR CITY     PTCLDY    29  13  51 CALM      30.16S
DELTA          CLOUDY    40  17  39 S8        30.09S WCI  35
MILFORD        MOCLDY    32  14  47 S7        30.13S WCI  26
MOAB/CYNLANDS  CLEAR     23  17  78 CALM      30.21R
PRICE          MOCLDY    26  19  74 CALM      30.20S
ST GEORGE      CLOUDY    34  16  47 CALM      30.19S
KANAB          PTCLDY    23  10  58 NE5       30.25S WCI  17

$$

REGIONAL REPORTS     COLORADO/ARIZONA

CITY           SKY/WX    TMP DP  RH WIND       PRES   REMARKS
CRAIG, CO      CLEAR     22  18  85 SE3       30.16S
GRAND JUNCTION CLEAR     22  19  89 CALM      30.22S
RIFLE          CLEAR     25  22  88 SE3       30.24S
MONTROSE       CLEAR     23  18  81 S6        30.25S WCI  16
CORTEZ         CLEAR     18  13  80 NE6       30.27S WCI  10
PAGE, AZ       MOCLDY    34  17  50 CALM      30.22S
GRAND CANYON   PTCLDY    15   3  59 VRB3      30.28S
KINGMAN        PTCLDY    34  13  41 SE3       30.13R
FLAGSTAFF      PTCLDY    24  12  60 CALM      30.29S

$$

REGIONAL REPORTS    NEVADA/IDAHO/WYOMING

CITY           SKY/WX    TMP DP  RH WIND       PRES   REMARKS
LAS VEGAS, NV  PTCLDY    43  20  39 SW7       30.07S
ELY            CLOUDY    28  12  51 SE8       30.15F WCI  20
ELKO           MOCLDY    29  24  82 CALM      30.03F
POCATELLO, ID  CLEAR     43  26  51 N7        29.92F
BURLEY         CLOUDY    52  22  30 S17       29.90F
EVANSTON, WY   PTCLDY    38  15  39 SW9       30.08S WCI  31
ROCK SPRINGS   PTCLDY    37  15  40 W7        30.06F WCI  32

$$


USA.gov is the U.S. government's official web portal to all federal, state and local government web resources and services.